Location: Antoign�
(47.0844°N, 0.1131°W)
Time: 22:58:57
(UTC+00:00)

GP-B - Pass Details

Date: 03 March 2021
Orbit: 631 x 635 km, 89.8° (Epoch: 20 April)

Event Time Altitude Azimuth Distance (km) Brightness Sun altitude
Rises 19:21:33 0° 178° (S) 2,916 6.4 -16.5°
Reaches altitude 10° 19:23:46 10° 179° (S) 2,014 5.6 -16.9°
Maximum altitude 19:28:12 84° 267° (W) 645 3.1 -17.6°
Drops below altitude 10° 19:32:41 10° 357° (N) 2,032 5.9 -18.4°
Sets 19:34:55 0° 358° (N) 2,946 6.7 -18.8°
